Content
SEND FEEDBACK

Daily
Averages
Monthly
Summary
United States of America

RAPID CITY, SOUTH DAKOTA


Home > North America > United States > South Dakota
Elevation: 963 meters     Latitude: 44 03N     Longitude: 103 04W

WEATHER
 
SELECT A DAY
Number of Records: 198,230;   Date Range: 1/1/95 - 4/22/14
 
SHARE

PRINT THIS DATA

[ ← Previous Day ]
WEATHER ALMANAC - 21 APRIL, 2013
[ Next Day → ]
[ °F ]   °C
Weather ElementAverageHighLow
Temperature3.8 °C8.9 °C (10:52 am)0 °C (10:52 pm)
Dewpoint1 °C4.4 °C (10:52 am)-1 °C (10:06 pm)
Humidity82.7 %96 % (10:52 pm)67 % (3:52 pm)
Barometer1018.6 hPa1021.7 hPa (9:52 pm)1013.5 hPa (2:52 am)
Wind Speed17.5 km/h40.7 km/h (11:52 am)
Wind Gust59.2 km/h (1:24 am)
Weather ElementAverage
Visibility12.1 km
Wind DirectionSSE (161.3 °)

Weather ElementTotal
Precipitation16.51 mm
Heating Degree Days13.9 (Base 18.3)
Averaged from 38 records on 21 April, 2013
WEATHER CONDITIONS BREAKOUT
WIND DIRECTION BREAKOUT
WEATHER BY HOUR - 21 APRIL, 2013
[ °F ]   °C
Local TimeTemperatureDewpointHumidityBarometerVisibilityWind DirectionWind SpeedGust SpeedPrecipitationEventsConditions
1:24 AM6 °C2 °C76 %1013.9 hPa16.1 kmNNW (340°)29.6 km/h59.2 km/h0 mmRainLight Rain
1:52 AM5 °C1.7 °C79 %1014.2 hPa16.1 kmNNW (340°)31.5 km/h0 mmOvercast
2:52 AM3.9 °C1.1 °C82 %1013.5 hPa16.1 kmWNW (300°)13 km/hPartly Cloudy
3:52 AM3.3 °C0.6 °C83 %1013.9 hPa16.1 kmWest (260°)7.4 km/hClear
4:52 AM2.8 °C1.1 °C89 %1014.6 hPa16.1 kmWest (260°)7.4 km/hPartly Cloudy
5:52 AM2.8 °C1.1 °C89 %1015.2 hPa16.1 kmWNW (300°)9.3 km/hMostly Cloudy
6:52 AM5.6 °C2.2 °C79 %1015.6 hPa16.1 kmCalmMostly Cloudy
7:52 AM7.2 °C2.8 °C74 %1016.3 hPa16.1 kmNorth (350°)9.3 km/hScattered Clouds
8:52 AM7.2 °C3.3 °C76 %1017.3 hPa16.1 kmNorth (350°)20.4 km/hMostly Cloudy
9:52 AM8.3 °C3.9 °C74 %1017.6 hPa16.1 kmNorth (350°)33.3 km/h46.3 km/hMostly Cloudy
10:52 AM8.9 °C4.4 °C74 %1017.6 hPa16.1 kmNorth (10°)37 km/h46.3 km/hOvercast
11:52 AM8.3 °C3.9 °C74 %1017.9 hPa16.1 kmNorth (10°)40.7 km/h48.1 km/hMostly Cloudy
12:52 PM6.7 °C2.8 °C76 %1018.6 hPa16.1 kmNorth (360°)37 km/h0 mmRainLight Rain
1:17 PM5 °C2 °C81 %1017.9 hPa16.1 kmNorth (360°)33.3 km/h0 mmOvercast
1:52 PM5 °C1.7 °C79 %1020 hPa16.1 kmNorth (10°)33.3 km/h44.4 km/h0 mmOvercast
2:33 PM6 °C1 °C70 %1018.3 hPa16.1 kmNorth (10°)25.9 km/hOvercast
2:45 PM6 °C1 °C70 %1018.3 hPa16.1 kmNorth (360°)18.5 km/hOvercast
2:52 PM6.1 °C1.1 °C71 %1020.3 hPa16.1 kmNNE (20°)22.2 km/hOvercast
3:52 PM5.6 °C0 °C67 %1020.7 hPa16.1 kmNorth (350°)22.2 km/hOvercast
4:52 PM5 °C0 °C70 %1020.7 hPa16.1 kmNorth (360°)18.5 km/hOvercast
5:52 PM3.9 °C1.1 °C82 %1021.3 hPa16.1 kmNorth (360°)16.7 km/h0.25 mmRainLight Rain
6:49 PM3 °C1 °C87 %1019.3 hPa14.5 kmNNE (20°)14.8 km/h0.51 mmRainLight Rain
6:52 PM3.3 °C1.1 °C86 %1021.3 hPa12.9 kmNNE (30°)14.8 km/h0.51 mmRainLight Rain
7:05 PM3 °C1 °C87 %1019.3 hPa16.1 kmNE (40°)11.1 km/h0 mmRainLight Rain
7:52 PM3.3 °C1.1 °C86 %1021 hPa16.1 kmEast (90°)9.3 km/h0.25 mmRainLight Rain
8:52 PM2.8 °C1.1 °C89 %1020.7 hPa16.1 kmEast (80°)5.6 km/h0.25 mmRainLight Rain
9:38 PM3 °C1 °C87 %1020 hPa8 kmEast (100°)7.4 km/h0.76 mmRainLight Rain
9:52 PM1.7 °C0 °C89 %1021.7 hPa6.4 kmEast (90°)9.3 km/h1.27 mmSnowLight Snow
10:06 PM1 °C-1 °C87 %1020.3 hPa8 kmNE (50°)7.4 km/h0.51 mmSnowLight Snow
10:30 PM1 °C0 °C93 %1020 hPa4 kmENE (70°)7.4 km/h0.76 mmSnowLight Snow
10:40 PM1 °C-1 °C87 %1020 hPa1.6 kmENE (60°)9.3 km/h1.27 mmSnowLight Snow
10:47 PM1 °C-1 °C87 %1019.6 hPa1.3 kmENE (60°)11.1 km/h1.78 mmSnowLight Snow
10:52 PM0 °C-0.6 °C96 %1021.7 hPa1.6 kmENE (60°)9.3 km/h2.03 mmSnowLight Snow
11:00 PM0 °C-1 °C93 %1019.6 hPa1.6 kmNE (50°)13 km/h0.25 mmSnowLight Snow
11:09 PM0 °C-1 °C93 %1019.3 hPa1.3 kmENE (60°)11.1 km/h0.76 mmSnowLight Snow
11:33 PM0 °C-1 °C93 %1019 hPa2.4 kmENE (70°)18.5 km/h1.78 mmSnowLight Snow
11:40 PM0 °C-1 °C93 %1019 hPa4 kmENE (70°)22.2 km/h1.78 mmSnowLight Snow
11:52 PM0 °C-0.6 °C96 %1021 hPa3.2 kmENE (70°)20.4 km/h1.78 mmSnowLight Snow
Hourly data recorded from KRAP, located 1.45 kilometers away from Rapid City, South Dakota







STORIES FROM OUR PARTNERS